STARLINK-11108, 59712

Orbit data source: Space-Track

STARLINK-11108, 59712 is a payload satellite owned by SpaceX/Seattle (US) in LEO that was launched on Fri, 10 May 2024 UTC via an FALCON 9 launch vehicle from the Air Force Western Test Range (AFWTR). Payload-class satellites include a variety of spacecraft equipped with specific instruments for various scientific and technological missions. These include communications satellites like Starlink; space stations such as the ISS; scientific satellites like the Hubble; Earth observation satellites from companies like Planet Labs, Umbra, and HawkEye 360; GPS; miniature CubeSats for education and research; and military/defense satellites.

Loading next visibility...
Identifier
59712, 2024-088E
Orbit
LEO
Country
Flag of USUS
Related business
Manufacturer
SpaceX/Seattle
Mission
Operational Commercial Communications
Bus & Motor
STARLINK V2MD, Unknown motor
Mass
960 kg wet, ~910 kg dry
Launch date (UTC)
2024-05-10 (2 years ago)
Launch vehicle
FALCON 9
Launch site
Air Force Western Test Range (AFWTR)
Object type
Payload
Rocket body
Debris
Shape & HBR
Box + 2 Pan, 18.1 m
Radar Cross Section
36.964 m², Large (>1 m²)

Expand to show TLE details & history
Last TLE update: 12 hours ago

TLE from 12 hours ago
0 STARLINK-11108
1 59712U 24088E   25346.86549554  .00001937  00000-0  20838-4 0  9997
2 59712  53.1599  34.4217 0001156  99.9823 260.1325 15.69716893 92636
Epoch: 2025-12-12T20:46Z
TLE epoch observation values (Epoch: 2025-12-12T20:46:18.814Z)
Latitude
-0.00007°
Longitude
1.04227°
Altitude
360.756 km
Speed
7.694 km/s
True Right ascension
02h 17m 41s
True Declination
0° 00' 00"
Sunlit
Object was in full shadow at epoch
Visualization orbit readout
Latitude
Unknown
Longitude
Unknown
Altitude
Unknown
Speed
Unknown
Apparent Right ascension
Unknown
Apparent Declination
Unknown
Sunlit
N/A
Visualization observer readout
Local Sidereal Time
07:34:23
Azimuth
Unknown
Elevation
Unknown
Doppler factor
Unknown
Orbital elements
Apogee altitude
360.747 km
Perigee altitude
359.189 km
Semi-major axis
6,738.105 km
Eccentricity
0.00012
Inclination
53.1599°
RAAN
34.4217°
Arg. of periapsis
99.9823°
True anomaly
260.11945°
Mean anomaly
260.1325°
Eccentric anomaly
260.12597°
Mean motion
3.92407 °/min
Orbital period
91.74 mins
BSTAR
0.000020838
Loading maneuver chart data...
Computing Atmospheric mass density...
Loading historical data...
Loading historical data...
Loading historical data...
Loading historical data...
Loading historical data...
Loading historical data...
Loading historical data...

Documentation

Showing up to 5 results
|